Weather History for Key West, FL

Change the Weather History Date:

Wednesday, January 16, 2013

  Actual Average Record
Temperature  
Mean Temperature 76 °F 69 °F  
Max Temperature 80 °F 74 °F 90 °F (1877)
Min Temperature 72 °F 64 °F 48 °F (2006)
Degree Days  
Heating Degree Days 0 1  
Month to date heating degree days 0 16  
Since 1 July heating degree days 4 34  
Cooling Degree Days 11 5  
Month to date cooling degree days 188 82  
Year to date cooling degree days 188 82  
Growing Degree Days 26 (Base 50)    
Moisture  
Dew Point 67 °F    
Average Humidity 76    
Maximum Humidity 84    
Minimum Humidity 67    
Precipitation  
Precipitation T in 0.07 in 1.75 in (1930)
Month to date precipitation T 1.04  
Year to date precipitation T 1.04  
Snow  
Snow 0.00 in - - ()
Month to date snowfall 0.0  
Since 1 July snowfall 0.0  
Snow Depth 0.00 in    
Sea Level Pressure  
Sea Level Pressure 30.05 in    
Wind  
Wind Speed 7 mph (ESE)    
Max Wind Speed 15 mph    
Max Gust Speed 18 mph    
Visibility 10 miles    
Events      
T = Trace of Precipitation, MM = Missing Value Source: NWS Daily Summary

Daily Weather History Graph

Daily Weather History Graph

Search for Another Location

Airport:

Trip Planner

Search our weather history database for the weather conditions in past years. The results will help you decide how hot, cold, wet, or windy it might be!

Date:

Astronomy

Jan. 16, 2013 Rise Set
Actual Time 7:12 AM EST 6:01 PM EST
Civil Twilight 6:48 AM EST 6:25 PM EST
Nautical Twilight 6:20 AM EST 6:53 PM EST
Astronomical Twilight 5:53 AM EST 7:20 PM EST
Moon 10:27 AM EST (1/16) 11:08 PM EST (1/16)
Length of Visible Light 11h 36m
Length of Day
10h 48m
Waxing Crescent, 28% of the Moon is Illuminated
Jan 16
Waxing Crescent
Jan 18
First Quarter
Jan 26
Full
Feb 3
Last Quarter
Feb 10
New

Hourly Weather History & Observations

Time (EST) Temp. Heat Index Dew Point Humidity Pressure Visibility Wind Dir Wind Speed Gust Speed Precip Events Conditions
12:53 AM 75.0 °F - 64.9 °F 71% 30.04 in 10.0 mi ESE 11.5 mph - N/A   Scattered Clouds
1:53 AM 75.0 °F - 64.9 °F 71% 30.04 in 10.0 mi East 10.4 mph - N/A   Scattered Clouds
2:53 AM 75.2 °F - 66.2 °F 73% 30.03 in 10.0 mi East 9.2 mph - N/A   Overcast
3:53 AM 75.0 °F - 66.0 °F 73% 30.03 in 10.0 mi East 6.9 mph - N/A   Mostly Cloudy
4:53 AM 73.0 °F - 64.9 °F 76% 30.04 in 10.0 mi East 4.6 mph - N/A   Partly Cloudy
5:53 AM 73.9 °F - 66.0 °F 76% 30.04 in 10.0 mi ENE 3.5 mph - N/A   Overcast
6:53 AM 73.0 °F - 66.9 °F 81% 30.05 in 10.0 mi NNE 3.5 mph - N/A   Mostly Cloudy
7:53 AM 73.0 °F - 68.0 °F 84% 30.07 in 10.0 mi ENE 3.5 mph - N/A   Scattered Clouds
8:33 AM 75.2 °F - 68.0 °F 78% 30.08 in 10.0 mi Calm Calm - 0.00 in   Overcast
8:53 AM 77.0 °F - 69.1 °F 76% 30.09 in 10.0 mi Calm Calm - 0.00 in   Mostly Cloudy
9:03 AM 77.0 °F - 69.8 °F 78% 30.09 in 10.0 mi SE 6.9 mph - N/A   Mostly Cloudy
9:53 AM 78.1 °F - 66.9 °F 68% 30.10 in 10.0 mi ESE 9.2 mph - N/A   Partly Cloudy
10:53 AM 79.0 °F - 68.0 °F 69% 30.09 in 10.0 mi SE 9.2 mph - N/A   Clear
11:53 AM 80.1 °F 82.9 °F 69.1 °F 69% 30.06 in 10.0 mi ESE 9.2 mph - N/A   Partly Cloudy
12:53 PM 79.0 °F - 66.9 °F 66% 30.04 in 10.0 mi SE 9.2 mph - N/A   Partly Cloudy
1:53 PM 79.0 °F - 68.0 °F 69% 30.02 in 10.0 mi SSE 9.2 mph - N/A   Clear
2:53 PM 79.0 °F - 69.1 °F 72% 30.01 in 10.0 mi SE 9.2 mph - N/A   Partly Cloudy
3:53 PM 79.0 °F - 68.0 °F 69% 30.02 in 10.0 mi SE 5.8 mph - N/A   Scattered Clouds
4:53 PM 78.1 °F - 70.0 °F 76% 30.03 in 10.0 mi ESE 6.9 mph - N/A   Overcast
5:53 PM 77.0 °F - 68.0 °F 74% 30.04 in 10.0 mi ESE 5.8 mph - N/A   Overcast
6:53 PM 75.9 °F - 68.0 °F 76% 30.04 in 10.0 mi Calm Calm - N/A   Mostly Cloudy
7:53 PM 75.9 °F - 69.1 °F 79% 30.06 in 10.0 mi ESE 8.1 mph - N/A   Clear
8:53 PM 75.9 °F - 68.0 °F 76% 30.06 in 10.0 mi ESE 6.9 mph - N/A   Clear
9:53 PM 75.9 °F - 66.9 °F 74% 30.05 in 10.0 mi SE 5.8 mph - N/A   Clear
10:53 PM 75.9 °F - 68.0 °F 76% 30.05 in 10.0 mi ESE 9.2 mph - N/A   Clear
11:53 PM 75.9 °F - 69.1 °F 79% 30.04 in 10.0 mi ESE 10.4 mph - N/A   Partly Cloudy